User: anonymous   Login
Location: Stoke Bliss
(52.2667°N, 2.5167°W)
Time: 12:25:00
(UTC+00:00)
Language:

Cosmos 1470 Rocket - Orbit

View from above orbital plane
View from above orbital plane
View from above satellite
View from above satellite

Ground track
Ground track

The orbit data is extracted from the following two-line orbital elements,

1 14148U 83061B   21138.14097318  .00000080  00000-0  68396-5 0  9999
2 14148  82.5204   9.2156 0020201 298.1758 184.6991 14.83378402 46962
Epoch (UTC): 18 May 2021 03:23:00
Eccentricity: 0.0020201
inclination: 82.5204°
perigee height: 604 km
apogee height: 633 km
right ascension of ascending node: 9.2156°
argument of perigee: 298.1758°
revolutions per day: 14.83378402
mean anomaly at epoch: 184.6991°
orbit number at epoch: 4696

The dashed part of the orbit path shows where the satellite is in the earth's shadow,  

DLR